CW9854 Weather Reports


Display with metric or nautical units.
time (UTC)temp
F
wind
direction
speed
MPH
gust
MPH
rain 1hr
in
rain 24hr
in
rain mn
in
humidity
%
barometer
mb
20260903175003 79 204 2.0 5.0 0.00 0.67 0.00 83 1013.4
20260903174503 79 202 2.0 6.0 0.00 0.67 0.00 85 1013.6
20260903174217 79 199 2.0 6.0 0.00 0.67 0.00 85 1013.6
20260903173503 79 215 1.0 4.0 0.00 0.67 0.00 84 1013.5
20260903173003 79 231 1.0 4.0 0.00 0.67 0.00 86 1013.5
20260903172503 79 212 1.0 4.0 0.00 0.67 0.00 85 1013.6
20260903172003 79 203 1.0 4.0 0.00 0.67 0.00 87 1013.6
20260903171503 78 228 1.0 4.0 0.00 0.67 0.00 86 1013.8
20260903171003 78 222 2.0 6.0 0.00 0.67 0.00 86 1013.7
20260903170503 78 214 2.0 6.0 0.00 0.67 0.00 87 1013.6
20260903170003 78 222 1.0 4.0 0.00 0.67 0.00 85 1013.7
20260903165503 78 219 1.0 4.0 0.00 0.67 0.00 85 1013.7
20260903165003 78 217 1.0 5.0 0.00 0.67 0.00 86 1013.5
20260903164503 78 199 2.0 5.0 0.00 0.67 0.00 85 1013.5
20260903164003 77 189 2.0 6.0 0.00 0.67 0.00 87 1013.6
20260903163503 77 220 2.0 10.0 0.00 0.67 0.00 86 1013.6
20260903163003 77 223 2.0 10.0 0.00 0.67 0.00 86 1013.8
20260903162503 77 226 2.0 5.0 0.00 0.67 0.00 86 1013.7
20260903162003 77 221 1.0 4.0 0.00 0.67 0.00 86 1013.8
20260903161717 77 212 1.0 3.0 0.00 0.67 0.00 86 1013.7
20260903161217 77 202 1.0 7.0 0.00 0.67 0.00 88 1013.7
20260903160503 77 201 1.0 6.0 0.00 0.67 0.00 87 1013.7
20260903160003 77 187 1.0 6.0 0.00 0.67 0.00 86 1013.7
20260903155503 77 190 1.0 6.0 0.00 0.67 0.00 88 1013.8
20260903155003 76 197 1.0 6.0 0.00 0.67 0.00 88 1013.9
20260903154503 76 239 1.0 3.0 0.00 0.67 0.00 87 1014.0
20260903154003 76 245 1.0 3.0 0.00 0.67 0.00 89 1014.0
20260903153503 76 178 1.0 4.0 0.00 0.67 0.00 90 1014.1
20260903153003 75 151 1.0 6.0 0.00 0.67 0.00 91 1013.9
20260903152503 75 164 1.0 6.0 0.00 0.67 0.00 90 1014.0
20260903152218 75 181 1.0 5.0 0.00 0.67 0.00 91 1014.0
20260903151503 75 213 1.0 5.0 0.00 0.67 0.00 92 1014.0
20260903151003 74 223 0.0 2.0 0.00 0.67 0.00 92 1014.1
20260903150508 74 214 1.0 2.0 0.00 0.67 0.00 93 1014.1
20260903150218 74 208 1.0 3.0 0.00 0.67 0.00 93 1014.1
20260903145503 74 200 1.0 3.0 0.00 0.67 0.00 93 1014.1
20260903145003 74 190 1.0 3.0 0.00 0.67 0.00 94 1014.1
20260903144503 74 197 1.0 3.0 0.00 0.67 0.00 95 1014.1
20260903144218 73 210 1.0 3.0 0.00 0.67 0.00 95 1014.1
20260903143503 73 232 0.0 2.0 0.00 0.67 0.00 95 1014.2
20260903143218 73 235 0.0 2.0 0.00 0.67 0.00 95 1014.2
20260903142503 73 329 0.0 2.0 0.00 0.67 0.00 96 1014.2
20260903142218 73 303 0.0 2.0 0.00 0.67 0.00 96 1014.0
20260903141717 73 271 1.0 2.0 0.00 0.67 0.00 96 1014.2
20260903141003 73 213 0.0 3.0 0.00 0.67 0.00 96 1014.2
20260903140503 73 187 1.0 3.0 0.00 0.67 0.00 96 1014.1
20260903140218 72 187 1.0 3.0 0.00 0.67 0.00 96 1014.1
20260903135503 72 159 1.0 4.0 0.00 0.67 0.00 96 1014.1
20260903135003 72 169 1.0 4.0 0.00 0.67 0.00 96 1014.1
20260903134503 72 198 1.0 2.0 0.00 0.67 0.00 96 1014.2
20260903134003 72 212 0.0 2.0 0.00 0.67 0.00 97 1014.2
20260903133503 72 222 0.0 2.0 0.00 0.67 0.00 97 1014.1
20260903133003 72 241 0.0 2.0 0.00 0.67 0.00 97 1014.2
20260903132503 72 211 0.0 2.0 0.00 0.67 0.00 97 1014.2
20260903132217 72 212 0.0 2.0 0.00 0.67 0.00 97 1014.2
20260903131503 71 217 0.0 1.0 0.00 0.67 0.00 97 1014.4
20260903131003 71 11 0.0 1.0 0.00 0.67 0.00 97 1014.3
20260903130503 71 15 0.0 1.0 0.00 0.67 0.00 97 1014.3
20260903130217 71 13 0.0 1.0 0.00 0.67 0.00 97 1014.4
20260903125503 70 6 0.0 2.0 0.00 0.67 0.00 97 1014.7
20260903125217 70 357 0.0 2.0 0.00 0.67 0.00 97 1014.7
20260903124718 70 357 0.0 2.0 0.00 0.67 0.00 97 1014.8
20260903124003 70 0 0.0 0.0 0.00 0.67 0.00 97 1014.7
20260903123504 70 246 0.0 1.0 0.00 0.67 0.00 97 1014.7
20260903123003 70 246 0.0 1.0 0.00 0.72 0.00 97 1014.6
20260903122503 69 246 0.0 1.0 0.00 0.93 0.00 97 1014.6
20260903122003 69 309 0.0 2.0 0.00 1.06 0.00 97 1014.7
20260903121503 69 327 0.0 2.0 0.00 1.12 0.00 97 1014.7
20260903121003 69 198 0.0 2.0 0.00 1.14 0.00 97 1014.6
20260903120503 68 200 0.0 1.0 0.00 1.15 0.00 97 1014.7
20260903120003 68 200 0.0 1.0 0.00 1.15 0.00 96 1014.6
20260903115503 68 200 0.0 1.0 0.00 1.15 0.00 96 1014.6
20260903115003 68 200 0.0 1.0 0.00 1.15 0.00 96 1014.5
20260903114503 68 200 0.0 1.0 0.00 1.15 0.00 96 1014.5
20260903114218 68 0 0.0 0.0 0.00 1.15 0.00 96 1014.4
20260903113503 68 0 0.0 0.0 0.00 1.16 0.00 96 1014.1
20260903113003 68 0 0.0 0.0 0.00 1.16 0.00 96 1014.1
20260903112503 68 0 0.0 0.0 0.00 1.16 0.00 96 1014.0
20260903112217 68 0 0.0 0.0 0.00 1.16 0.00 96 1014.0
20260903111503 68 200 0.0 1.0 0.00 1.16 0.00 96 1013.9
20260903111003 68 200 0.0 1.0 0.00 1.16 0.00 96 1013.9
20260903110503 68 0 0.0 0.0 0.00 1.16 0.00 96 1013.9
20260903110217 68 0 0.0 0.0 0.00 1.16 0.00 96 1013.9
20260903105503 68 0 0.0 0.0 0.00 1.16 0.00 96 1013.5
20260903105003 68 0 0.0 0.0 0.00 1.16 0.00 96 1013.4
20260903104503 68 0 0.0 0.0 0.00 1.16 0.00 96 1013.5
20260903104004 68 0 0.0 0.0 0.00 1.16 0.00 96 1013.4
20260903103503 68 0 0.0 0.0 0.00 1.16 0.00 96 1013.3
20260903103218 68 0 0.0 0.0 0.00 1.16 0.00 96 1013.4
20260903102717 68 0 0.0 0.0 0.00 1.16 0.00 96 1013.4
20260903102003 68 0 0.0 0.0 0.00 1.16 0.00 96 1013.4
20260903101503 68 200 0.0 1.0 0.00 1.16 0.00 96 1013.2
20260903101003 67 200 0.0 1.0 0.00 1.16 0.00 96 1013.2
20260903100503 67 200 0.0 1.0 0.00 1.16 0.00 96 1013.2
20260903100003 67 200 0.0 1.0 0.00 1.16 0.00 96 1013.2
20260903095503 67 0 0.0 0.0 0.00 1.16 0.00 96 1013.1
20260903095003 67 0 0.0 0.0 0.00 1.16 0.00 96 1013.1
20260903094717 67 0 0.0 0.0 0.00 1.16 0.00 95 1013.1
20260903094003 67 0 0.0 0.0 0.00 1.16 0.00 95 1013.0
20260903093503 67 0 0.0 0.0 0.00 1.16 0.00 95 1013.0
20260903093003 67 0 0.0 0.0 0.00 1.16 0.00 95 1012.9
20260903092503 67 0 0.0 0.0 0.00 1.16 0.00 95 1012.9
20260903092218 67 0 0.0 0.0 0.00 1.16 0.00 95 1012.8
20260903091503 68 0 0.0 0.0 0.00 1.16 0.00 95 1012.8
20260903091003 68 0 0.0 0.0 0.00 1.16 0.00 95 1012.9
20260903090503 68 0 0.0 0.0 0.00 1.16 0.00 95 1012.9
20260903090003 68 0 0.0 0.0 0.00 1.16 0.00 95 1012.8
20260903085503 68 0 0.0 0.0 0.00 1.16 0.00 95 1012.7
20260903085003 68 0 0.0 0.0 0.00 1.16 0.00 95 1012.7
20260903084503 68 0 0.0 0.0 0.00 1.16 0.00 95 1012.9
20260903084217 68 0 0.0 0.0 0.00 1.16 0.00 95 1012.9
20260903083503 68 0 0.0 0.0 0.00 1.16 0.00 95 1012.9
20260903083004 68 0 0.0 0.0 0.00 1.16 0.00 95 1012.8
20260903082503 68 0 0.0 0.0 0.00 1.16 0.00 95 1012.8
20260903082003 68 0 0.0 0.0 0.00 1.16 0.00 95 1012.7
20260903081503 68 0 0.0 0.0 0.00 1.16 0.00 95 1012.6
20260903081003 68 0 0.0 0.0 0.00 1.16 0.00 95 1012.6
20260903080503 68 0 0.0 0.0 0.00 1.16 0.00 95 1012.5
20260903080003 68 0 0.0 0.0 0.00 1.16 0.00 95 1012.6
20260903075503 68 0 0.0 0.0 0.00 1.16 0.00 95 1012.5
20260903075003 68 0 0.0 0.0 0.00 1.16 0.00 95 1012.6
20260903074503 68 0 0.0 0.0 0.00 1.16 0.00 95 1012.6
20260903074005 68 0 0.0 0.0 0.00 1.16 0.00 95 1012.6
20260903073503 68 0 0.0 0.0 0.00 1.16 0.00 95 1012.6
20260903073003 68 0 0.0 0.0 0.00 1.16 0.00 95 1012.6
20260903072718 68 200 0.0 1.0 0.00 1.16 0.00 95 1012.6
20260903072003 69 176 0.0 2.0 0.00 1.16 0.00 95 1012.7
20260903071718 68 187 0.0 2.0 0.00 1.16 0.00 95 1012.7
20260903071003 69 197 0.0 4.0 0.00 1.16 0.00 95 1012.6
20260903070503 69 192 0.0 4.0 0.00 1.16 0.00 95 1012.6
20260903070217 69 190 0.0 4.0 0.00 1.16 0.00 95 1012.6
20260903065503 69 160 0.0 5.0 0.00 1.16 0.00 95 1012.7
20260903065003 69 189 0.0 4.0 0.00 1.16 0.00 95 1012.9
20260903064718 69 201 0.0 4.0 0.00 1.16 0.00 95 1012.9
20260903064003 69 215 0.0 2.0 0.00 1.16 0.00 95 1013.1
20260903063503 69 215 0.0 2.0 0.00 1.16 0.00 95 1012.9
20260903063217 69 212 0.0 2.0 0.00 1.16 0.00 95 1013.0
20260903062503 69 201 0.0 3.0 0.00 1.16 0.00 95 1013.0
20260903062003 69 194 0.0 3.0 0.00 1.16 0.00 95 1013.2
20260903061503 69 205 0.0 2.0 0.00 1.16 0.00 95 1013.0
20260903061003 69 217 0.0 4.0 0.00 1.16 0.00 95 1013.0
20260903060504 69 211 0.0 4.0 0.00 1.16 0.00 95 1013.0
20260903060003 69 218 0.0 4.0 0.00 1.16 0.00 95 1012.7
20260903055503 69 203 1.0 4.0 0.00 1.16 0.00 95 1012.7
20260903055003 69 195 1.0 4.0 0.00 1.16 0.00 95 1012.7
20260903054717 69 192 1.0 4.0 0.00 1.16 0.00 95 1012.6
20260903054003 69 172 1.0 2.0 0.00 1.16 0.00 95 1012.7
20260903053717 69 172 0.0 1.0 0.00 1.16 0.00 95 1012.8
20260903053003 69 214 0.0 4.0 0.00 1.16 0.00 95 1012.8
20260903052503 69 222 0.0 3.0 0.00 1.16 0.00 95 1012.7
20260903052003 69 200 1.0 5.0 0.00 1.16 0.00 95 1012.7
20260903051503 69 203 1.0 5.0 0.00 1.16 0.00 95 1012.9
20260903051003 69 209 1.0 4.0 0.00 1.16 0.00 95 1012.9
20260903050504 69 198 1.0 3.0 0.00 1.16 0.00 95 1012.8
20260903050003 69 206 2.0 7.0 0.00 1.16 0.00 95 1012.9
20260903045717 69 206 2.0 7.0 0.00 1.16 0.00 95 1012.8
20260903045003 68 213 1.0 6.0 0.00 1.16 0.00 95 1012.6
20260903044503 68 212 1.0 4.0 0.00 1.16 0.00 95 1012.7
20260903044003 68 217 1.0 4.0 0.00 1.16 0.00 95 1012.6
20260903043503 68 232 0.0 2.0 0.00 1.16 0.00 95 1012.6
20260903043003 68 234 0.0 2.0 0.00 1.16 0.00 95 1012.2
20260903042503 69 235 0.0 2.0 0.00 1.16 0.00 95 1012.2
20260903042003 69 240 0.0 3.0 0.00 1.16 0.00 95 1012.4
20260903041717 69 242 0.0 3.0 0.00 1.16 0.00 95 1012.2
20260903041003 69 314 0.0 1.0 0.00 1.16 0.00 95 1012.1
20260903040503 69 260 0.0 1.0 0.00 1.16 0.00 95 1012.1
20260903040218 69 243 0.0 1.0 0.00 1.16 0.00 95 1012.1
20260903035503 69 237 0.0 2.0 0.00 1.16 1.16 95 1012.0
20260903035003 69 195 1.0 3.0 0.00 1.16 1.16 95 1012.0
20260903034717 69 192 1.0 3.0 0.00 1.16 1.16 95 1012.0
20260903034218 69 211 0.0 2.0 0.00 1.16 1.16 95 1012.2
20260903033717 69 233 0.0 1.0 0.00 1.16 1.16 95 1012.2
20260903033003 69 255 0.0 3.0 0.00 1.16 1.16 95 1012.3
20260903032503 69 282 0.0 3.0 0.00 1.16 1.16 95 1012.3
20260903032003 69 252 1.0 4.0 0.00 1.16 1.16 95 1012.3
20260903031503 69 226 1.0 4.0 0.00 1.16 1.16 95 1012.5
20260903031003 69 246 1.0 3.0 0.00 1.16 1.16 95 1012.7
20260903030503 69 261 1.0 2.0 0.00 1.16 1.16 95 1012.9
20260903030003 69 229 1.0 2.0 0.00 1.16 1.16 95 1013.0
20260903025503 69 224 0.0 2.0 0.00 1.16 1.16 95 1013.0
20260903025003 69 243 0.0 2.0 0.00 1.16 1.16 95 1013.0
20260903024503 69 274 0.0 2.0 0.00 1.16 1.16 95 1013.0
20260903024218 69 275 0.0 2.0 0.00 1.16 1.16 95 1013.1
20260903023503 69 272 1.0 3.0 0.03 1.16 1.16 95 1013.5
20260903023003 69 236 1.0 3.0 0.10 1.16 1.16 95 1013.5
20260903022503 69 239 1.0 2.0 0.20 1.16 1.16 95 1013.4
20260903022217 69 264 1.0 3.0 0.26 1.16 1.16 95 1013.5
20260903021503 69 224 1.0 4.0 0.26 1.16 1.16 95 1013.5
20260903021003 69 234 1.0 3.0 0.26 1.16 1.16 95 1013.5
20260903020503 69 270 1.0 3.0 0.26 1.16 1.16 95 1013.5
20260903020003 69 274 0.0 2.0 0.26 1.16 1.16 95 1013.5
20260903015503 69 244 0.0 3.0 0.26 1.16 1.16 94 1013.3
20260903015217 69 228 1.0 3.0 0.26 1.16 1.16 95 1013.5
20260903014503 69 191 1.0 4.0 0.26 1.16 1.16 95 1014.0
20260903014003 69 146 1.0 4.0 0.26 1.16 1.16 95 1014.1
20260903013718 70 93 1.0 3.0 0.25 1.15 1.15 95 1014.0
20260903013003 70 264 1.0 4.0 0.17 1.06 1.06 95 1014.3
20260903012503 69 282 1.0 4.0 0.07 0.96 0.96 95 1014.1
20260903012003 69 275 1.0 4.0 0.02 0.90 0.90 94 1012.9
20260903011503 69 293 0.0 2.0 0.02 0.90 0.90 94 1012.6
20260903011003 69 0 0.0 0.0 0.03 0.90 0.90 95 1012.9
20260903010503 70 0 0.0 0.0 0.04 0.90 0.90 95 1013.1
20260903010003 70 169 0.0 2.0 0.05 0.90 0.90 95 1013.2
20260903005503 70 169 0.0 2.0 0.06 0.90 0.90 95 1012.9
20260903005003 70 169 0.0 2.0 0.07 0.90 0.90 94 1012.2
20260903004503 70 169 0.0 2.0 0.08 0.90 0.90 94 1012.0
20260903004003 70 167 0.0 1.0 0.09 0.90 0.90 94 1012.2
20260903003503 70 166 0.0 1.0 0.10 0.90 0.90 94 1012.3
20260903003003 70 159 0.0 1.0 0.10 0.89 0.89 94 1012.4
20260903002503 70 159 0.0 1.0 0.11 0.89 0.89 94 1012.3
20260903002003 70 159 0.0 1.0 0.11 0.88 0.88 94 1012.4
20260903001503 70 159 0.0 1.0 0.14 0.88 0.88 94 1012.7
20260903001218 70 159 0.0 4.0 0.27 0.87 0.87 94 1012.9
20260903000503 70 69 1.0 4.0 0.33 0.86 0.86 94 1012.6
20260903000219 70 47 0.0 2.0 0.34 0.85 0.85 93 1012.1
20260902235503 70 31 1.0 3.0 0.35 0.84 0.84 93 1011.6
20260902235003 71 11 1.0 3.0 0.34 0.83 0.83 93 1011.7
20260902234717 71 21 1.0 4.0 0.34 0.83 0.83 92 1011.9
20260902234003 72 30 1.0 8.0 0.32 0.81 0.81 92 1012.7
20260902233503 72 7 1.0 8.0 0.31 0.80 0.80 92 1013.4
20260902233003 73 321 1.0 6.0 0.30 0.79 0.79 92 1013.6
20260902232503 73 43 1.0 6.0 0.29 0.78 0.78 91 1013.0
20260902232003 74 29 1.0 4.0 0.28 0.77 0.77 91 1012.8
20260902231503 75 53 1.0 5.0 0.25 0.74 0.74 90 1013.0
20260902231003 76 49 1.0 5.0 0.10 0.59 0.59 90 1012.9
20260902230717 77 23 0.0 2.0 0.06 0.55 0.56 90 1012.5
20260902230003 78 60 1.0 4.0 0.01 0.50 0.50 89 1012.4
20260902225503 78 54 1.0 6.0 0.00 0.49 0.49 88 1012.3
20260902225003 79 22 1.0 6.0 0.00 0.49 0.49 89 1012.4
20260902224503 79 273 1.0 3.0 0.00 0.49 0.49 89 1012.1
20260902224003 80 224 1.0 4.0 0.00 0.49 0.49 87 1011.6
20260902223503 80 210 1.0 4.0 0.00 0.49 0.49 88 1011.3
20260902223003 80 201 1.0 3.0 0.00 0.49 0.49 88 1011.0
20260902222503 80 203 1.0 4.0 0.00 0.49 0.49 88 1011.2
20260902222218 80 212 1.0 4.0 0.00 0.49 0.49 88 1011.2
20260902221503 81 228 0.0 1.0 0.00 0.49 0.49 87 1011.4
20260902221218 81 229 0.0 2.0 0.00 0.49 0.49 87 1011.6
20260902220503 81 227 0.0 3.0 0.00 0.49 0.49 87 1011.5
20260902220003 81 198 0.0 1.0 0.00 0.49 0.49 87 1011.3
20260902215503 81 198 0.0 1.0 0.00 0.49 0.49 87 1011.3
20260902215003 82 208 0.0 3.0 0.00 0.49 0.49 87 1011.0
20260902214716 82 212 1.0 5.0 0.00 0.49 0.49 87 1011.0
20260902214003 82 207 1.0 5.0 0.00 0.49 0.49 86 1011.0
20260902213503 81 213 1.0 4.0 0.00 0.49 0.49 86 1010.9
20260902213003 81 229 1.0 3.0 0.00 0.49 0.49 87 1011.2
20260902212503 81 226 1.0 3.0 0.00 0.49 0.49 87 1011.3
20260902212003 81 231 0.0 3.0 0.00 0.49 0.49 88 1011.7
20260902211503 80 212 1.0 6.0 0.00 0.49 0.49 88 1012.1
20260902211003 80 219 1.0 6.0 0.00 0.49 0.49 88 1012.0
20260902210503 80 238 0.0 4.0 0.00 0.49 0.49 88 1012.0
20260902210003 80 227 0.0 2.0 0.00 0.49 0.49 88 1012.0
20260902205718 80 234 0.0 3.0 0.00 0.49 0.49 88 1012.1
20260902205003 80 228 0.0 3.0 0.00 0.49 0.49 88 1012.3
20260902204503 80 203 0.0 3.0 0.00 0.49 0.49 87 1012.4
20260902204217 80 198 0.0 3.0 0.00 0.49 0.49 87 1012.4
20260902203503 80 201 0.0 2.0 0.00 0.49 0.49 86 1012.8
20260902203003 80 202 0.0 2.0 0.00 0.49 0.49 86 1012.9
20260902202718 81 223 0.0 3.0 0.00 0.49 0.49 85 1012.9
20260902202217 81 205 0.0 3.0 0.00 0.49 0.49 85 1012.9
20260902201503 82 182 1.0 3.0 0.00 0.49 0.49 83 1013.1
20260902201003 82 196 1.0 4.0 0.00 0.49 0.49 83 1013.1
20260902200503 83 192 1.0 5.0 0.00 0.49 0.49 82 1013.3
20260902200003 84 198 1.0 5.0 0.00 0.49 0.49 80 1013.7
20260902195503 84 195 2.0 4.0 0.00 0.49 0.49 81 1013.7
20260902195003 84 201 2.0 4.0 0.00 0.49 0.49 80 1013.7
20260902194504 85 212 1.0 4.0 0.00 0.49 0.49 80 1013.8
20260902194217 85 206 2.0 5.0 0.00 0.49 0.49 80 1013.8
20260902193503 85 209 2.0 6.0 0.00 0.49 0.49 77 1013.8
20260902193003 85 227 1.0 4.0 0.00 0.49 0.49 80 1013.8
20260902192503 84 236 1.0 4.0 0.00 0.49 0.49 79 1013.8
20260902192216 84 238 1.0 4.0 0.00 0.49 0.49 78 1013.8
20260902191503 84 201 1.0 5.0 0.00 0.49 0.49 80 1013.6
20260902191003 84 197 1.0 5.0 0.00 0.49 0.49 81 1013.7
20260902190718 84 193 1.0 6.0 0.00 0.49 0.49 79 1013.8
20260902190003 84 193 1.0 8.0 0.00 0.49 0.49 78 1013.8
20260902185718 84 202 1.0 8.0 0.00 0.49 0.49 82 1013.8
20260902185003 84 196 1.0 4.0 0.00 0.49 0.49 81 1013.7
20260902184717 84 182 1.0 4.0 0.00 0.49 0.49 81 1013.7
20260902184003 83 202 1.0 4.0 0.00 0.49 0.49 81 1013.8
20260902183717 83 231 1.0 4.0 0.00 0.49 0.49 83 1013.8
20260902183218 82 229 0.0 3.0 0.00 0.49 0.49 86 1013.9
20260902182717 82 217 1.0 4.0 0.00 0.49 0.49 86 1013.9
20260902182004 80 237 1.0 5.0 0.00 0.49 0.49 86 1013.8
20260902181503 80 212 1.0 6.0 0.00 0.49 0.49 85 1013.8
20260902181003 79 183 1.0 6.0 0.00 0.49 0.49 87 1013.8
20260902180503 79 200 1.0 5.0 0.00 0.49 0.49 88 1013.8
20260902180006 78 225 1.0 5.0 0.00 0.49 0.49 88 1013.9
20260902175503 77 202 1.0 7.0 0.00 0.49 0.49 90 1013.9